Regional Weather Roundup
Issued by NWS Upton, NY

Current Version | Previous Version | Text Only | Print | Product List | Glossary On
Versions: 1 2 3 4 5 6 7 8 9 10 11 12 13 14 15 16 17 18 19 20 21 22 23 24 25 26 27 28 29 30 31 32 33 34 35 36 37 38 39 40 41 42 43 44 45 46 47 48 49 50
000
ASUS41 KOKX 200005
RWROKX

REGIONAL WEATHER ROUNDUP
NATIONAL WEATHER SERVICE NEW YORK NY
800 PM EDT SUN OCT 19 2014

NOTE: "FAIR" INDICATES FEW OR NO CLOUDS BELOW 12,000 FEET WITH NO
SIGNIFICANT WEATHER AND/OR OBSTRUCTIONS TO VISIBILITY.

NYZ071-072-176-178-NJZ106-104-200100-
NEW YORK CITY METRO AREA


CITY           SKY/WX    TMP DP  RH WIND       PRES   REMARKS
CENTRAL PARK   CLEAR     47  26  44 CALM      30.06R
LAGUARDIA APRT PTCLDY    48  31  51 NW22G31   30.03R
KENNEDY INTL   PTCLDY    48  25  40 NW18G30   30.04R
NEWARK/LIBERTY PTCLDY    48  26  42 NW16      30.04R
BRNX BOT. GARD   N/A    N/A N/A N/A W13       30.04R
TETERBORO      CLEAR     46  26  45 N9        30.03R
$$

NYZ177-179-078>081-200100-
LONG ISLAND NEW YORK

CITY           SKY/WX    TMP DP  RH WIND       PRES   REMARKS
FARMINGDALE    PTCLDY    48  29  47 NW6       30.02R
ISLIP          PTCLDY    47  28  47 NW14      29.99R
SHIRLEY        NOT AVBL
WESTHAMPTON    CLEAR     47  27  45 NW14      30.00R
MONTAUK POINT    N/A     49  31  49 NW15G24   29.97R
$$

NYZ052-065-067-200100-
HUDSON VALLEY

CITY           SKY/WX    TMP DP  RH WIND       PRES   REMARKS
WHITE PLAINS   CLEAR     45  26  47 NW17G24   30.01R
NEWBURGH       CLEAR     41  28  60 NW12      30.03R
MONTGOMERY     CLEAR     42  25  50 VRB3      30.03R
POUGHKEEPSIE   FAIR      43  26  51 NW8       30.04R
ALBANY         MOCLDY    42  26  53 NW12G21   30.03R
$$

NJZ001-105-106-008-010-013-015-019>022-104-200100-
NEW JERSEY

CITY           SKY/WX    TMP DP  RH WIND       PRES   REMARKS
NEWARK/LIBERTY PTCLDY    48  26  42 NW16      30.04R
TETERBORO      CLEAR     46  26  45 N9        30.03R
CALDWELL       CLEAR     44  26  49 VRB3      30.05R
MORRISTOWN     CLEAR     43  37  81 NW3       30.05R
SOMERVILLE     CLEAR     40  30  67 CALM      30.04R
SUSSEX         CLEAR     45  26  47 VRB3      30.05R
ANDOVER          N/A     42  26  53 N6        30.05R
TRENTON        CLEAR     46  27  47 NW3       30.05R
MILLVILLE      CLEAR     41  35  79 CALM      30.06R
ATLANTIC CITY  FAIR      47  31  53 W6        30.05R
WRIGHTSTOWN    CLEAR     41  34  76 S2        30.03R
TOMS RIVER     CLEAR     39  32  75 CALM      30.05R
BELMAR         CLEAR     45  27  49 NW7       30.04R
$$

PAZ047>061-062-071-200100-
EASTERN PENNSYLVANIA

CITY           SKY/WX    TMP DP  RH WIND       PRES   REMARKS
PHILADELPHIA   CLEAR     52  26  36 NW5       30.07R
ALLENTOWN      CLEAR     43  28  55 N6        30.05R
SCRANTON       CLEAR     42  27  55 N3        30.05R
$$

CTZ002-004>006-009-010-012-RIZ004-006-007-MAZ004-011-015-200100-
SOUTHERN NEW ENGLAND
 IN CT

CITY           SKY/WX    TMP DP  RH WIND       PRES   REMARKS
BRADLEY INTL   PTCLDY    44  26  49 NW15      29.98R
HARTFORD       CLEAR     44  26  49 W10G20    29.99R
DANBURY        CLEAR     42  25  50 NW8       30.02R
WTRBRY/OXFORD  PTCLDY    41  23  48 NW9       30.00R
BRIDGEPORT     CLEAR     45  29  53 NW7       30.01R
MERIDEN        CLEAR     43  26  51 NW13      30.00R
NEW HAVEN      PTCLDY    48  26  42 N14G21    30.00R
CHESTER        FAIR      43  28  56 NW9G17    29.98R
GROTON         CLEAR     44  29  55 NW14G21   29.96R
WILLIMANTIC    FAIR      45  27  49 NW9G20    29.97R

 IN RI

CITY           SKY/WX    TMP DP  RH WIND       PRES   REMARKS
PROVIDENCE     PTCLDY    48  28  46 NW12      29.93R
BLOCK ISLAND   PTCLDY    48  28  46 NW12G24   29.93R
WESTERLY       CLEAR     46  28  49 NW7       29.95R

 IN MA

CITY           SKY/WX    TMP DP  RH WIND       PRES   REMARKS
BOSTON         CLOUDY    47  27  45 NW12      29.90R
WORCESTER      CLOUDY    42  30  62 NW7       29.91R
WESTFIELD      PTCLDY    43  25  49 NW13      29.98R
PROVINCETOWN   CLOUDY    50  34  53 NW20G30   29.89R
NANTUCKET      CLOUDY    52  33  48 NW23      29.86R
$$

ANZ330-335-338-340-345-350-353-355-200100-
COASTAL MARINE OBSERVATIONS


STATION/POSITION TIME  SKY/WX   TEMP    WIND        PRES    VSBY  WAVE
                                AIR SEA DIR/SP/G                  HT/PER
                 (UTC)          (F)     (DEG/KT/KT) (MB)    (MI)  (FT/S)
NY HARB ENTRANCE NOT AVBL
4S FIRE IS       2300               64                N/A           4/12
20S FIRE ISLAND  0000            52 64  320/ 21/ 29 1015.5          5/12
23SW MTP         0000                                 N/A           5/ 4
HUDSON CANYON    0000            54 66  330/ 23/ 29 1014.5          8/ 7
EXECUTION ROCKS  0000            49 64  300/ 16/ 23   N/A
WESTERN LI SOUND 2300            51     320/ 17/ 23   N/A           1/ 3
CENTRAL LI SOUND 2300            49 64  330/ 19/ 25   N/A           3/ 4
EASTERN LI SOUND 2300            50 64  310/ 19/ 25   N/A
ROBBINS REEF     0000            48     330/ 15/ 19 1015.8
$$


>>>>>>>>>>>>>>>>>>>>>>>>>>>> KEY <<<<<<<<<<<<<<<<<<<<<<<<<<<
>                                                          <
>     SKY/WX - SKY CONDITION/PRESENT WEATHER               <
>     TMP    - TEMPERATURE IN FAHRENHEIT                   <
>     DP     - DEWPOINT IN FAHRENHEIT                      <
>     RH     - RELATIVE HUMIDITY IN PERCENT                <
>     WIND   - DIRECTION AND SPEED IN MPH                  <
>     PRES   - MEAN SEA LEVEL PRESSURE IN INCHES OF HG     <
>     WCI    - WIND CHILL INDEX                            <
>     VSB    - VISIBILITY IN MILES                         <
>     HX     - HEAT INDEX                                  <
>     TC     - TEMPERATURE IN CELSIUS                      <
>     VRB    - VARIABLE WIND DIRECTION                     <
>                                                          <
>>>>>>>>>>>>>>>>>>>>>>>>>>>> KEY <<<<<<<<<<<<<<<<<<<<<<<<<<<




USA.gov is the U.S. government's official web portal to all federal, state and local government web resources and services.